Location: Unspecified
(56.0100°N, 0.0000°E)
Time: 08:12:07
(UTC+00:00)

IRS-P2 - Visible Passes

Search period start: 04 April 2026 00:00
Search period end: 14 April 2026 00:00
Orbit: 809 x 810 km, 98.9° (Epoch: 29 March)

Date Brightness Start Highest point End Pass type
(mag) Time Alt. Az. Time Alt. Az. Time Alt. Az.
4 Apr 5.1 19:35:16 10° SSE 19:40:34 77° ENE 19:45:54 10° NNW visible
4 Apr 7.2 21:16:52 10° SW 21:21:00 23° W 21:25:11 10° NW visible
5 Apr 6.7 20:52:10 10° SSW 20:56:56 33° W 21:01:43 10° NNW visible
6 Apr 6.0 20:27:48 10° S 20:32:55 48° W 20:38:05 10° NNW visible
7 Apr 5.4 20:03:43 10° S 20:09:00 70° WSW 20:14:20 10° NNW visible
7 Apr 7.7 21:46:59 10° WSW 21:49:52 15° W 21:52:45 10° NW visible
8 Apr 5.1 19:39:52 10° SSE 19:45:10 82° ENE 19:50:31 10° NNW visible
8 Apr 7.3 21:21:40 10° SW 21:25:40 21° W 21:29:42 10° NW visible
9 Apr 6.8 20:56:54 10° SSW 21:01:35 31° W 21:06:17 10° NNW visible
10 Apr 6.1 20:32:30 10° S 20:37:33 45° W 20:42:40 10° NNW visible
11 Apr 5.5 20:08:22 10° S 20:13:38 66° WSW 20:18:56 10° NNW visible
11 Apr 7.7 21:51:57 10° WSW 21:54:33 14° W 21:57:08 10° NW visible
12 Apr 5.2 19:44:27 10° SSE 19:49:46 87° ENE 19:55:08 10° NNW visible
12 Apr 7.4 21:26:28 10° SW 21:30:21 20° W 21:34:13 10° NW visible
13 Apr 6.9 21:01:38 10° SSW 21:06:13 29° W 21:10:50 10° NNW visible
